Tracking 18032 objects as of 27-March-2017
HD Live streaming from Space Station
objects crossing your sky now

IRIDIUM 33 DEB

Track IRIDIUM 33 DEB now!
10-day predictions


NORAD ID: 34150
Int'l Code: 1997-051ED
Perigee: 668.6 km
Apogee: 777.4 km
Inclination: 86.5 °
Period: 99.1 minutes
Semi major axis: 7094 km
RCS: 0.0227 m2 (small)
Launch date: September 14, 1997
Source: United States (US)
Launch site: TYURATAM MISSILE AND SPACE COMPLEX (TTMTR)

Note: This is SATELLITE DEBRIS
Your satellite tracking list
Your tracking list is empty





NASA's NSSDC Master Catalog

Two Line Element Set (TLE):
1 34150U 97051ED  17084.76548579 +.00004161 +00000-0 +96555-3 0  9991
2 34150 086.4856 001.5482 0076689 198.4041 213.9909 14.52992702423569
Source of the keplerian elements: AFSPC